GSAT0216 (GALILEO 20) (43056 NORAD) Tracking and Keplerian Element Data

This shows tracking and keplerian element data for the satellite.

Feedback or suggestion? Click here.




ElementValue
Catalog43056
NameGSAT0216 (GALILEO 20)
Epoch Orbit569
Epoch Day315.17694558
Epoch Year2018
RAAN297.7927
Inclination56.7383
Eccentricity0.0005749
Argument of Perigee258.6882
Mean Anonmoly101.2269
Mean Motion1.70473774
Decay Rate-3.8E-07
L11 43056U 17079B 18315.17694558 -.00000038 00000-0 00000-0 0 9997
L22 43056 56.7383 297.7927 0005749 258.6882 101.2269 1.70473774 5690

Live tracking and technical data element details for GSAT0216 (GALILEO 20) (NORAD 43056). GSAT0216 (GALILEO 20) can be tracked NOW for your location showing map with azimuth and elevation plus other details from your city location.

Track the satellite on the map from your city or location and see movement details for azimuth, elevation, latitude, longitude, range, height, and movement on the map or in text.







IsCatalogInMostPopularTable: catalog: 43056, numindb: 163
Update: records affected: 1



GetName: 43056 GSAT0216 (GALILEO 20)

Hit Count: updated at: Mon, 12 Nov 2018 21:42:56 GMT